User: anonymous   Login
Location: Oshawa
(43.9000°N, 78.8670°W)
Time: 15:31:00
(UTC-04:00)
Language:

CZ-4C R/B - Orbit

View from above orbital plane
View from above orbital plane
View from above satellite
View from above satellite

Ground track
Ground track

The orbit data is extracted from the following two-line orbital elements,

1 32290U 07055B   16181.82204335 +.00001385 +00000-0 +43572-4 0  9999
2 32290 097.5267 275.6642 0069315 307.5976 051.8985 15.32563403477733
Epoch (UTC): 29 June 2016 19:43:44
Eccentricity: 0.0069315
inclination: 97.5267°
perigee height: 421 km
apogee height: 515 km
right ascension of ascending node: 275.6642°
argument of perigee: 307.5976°
revolutions per day: 15.32563403
mean anomaly at epoch: 51.8985°
orbit number at epoch: 47773

The dashed part of the orbit path shows where the satellite is in the earth's shadow,  

DLR